STARLINK-34594, 65088

Orbit data source: Space-Track

STARLINK-34594, 65088 is a payload satellite owned by SpaceX/Seattle (US) in LEO that was launched on Mon, 04 Aug 2025 UTC via an FALCON 9 launch vehicle from the Air Force Eastern Test Range (AFETR). Payload-class satellites include a variety of spacecraft equipped with specific instruments for various scientific and technological missions. These include communications satellites like Starlink; space stations such as the ISS; scientific satellites like the Hubble; Earth observation satellites from companies like Planet Labs, Umbra, and HawkEye 360; GPS; miniature CubeSats for education and research; and military/defense satellites.

Loading next visibility...
Identifier
65088, 2025-167L
Orbit
LEO
Country
Flag of USUS
Related business
Manufacturer
SpaceX/Seattle
Mission
Operational spacecraft
Bus & Motor
STARLINK V2MO, Unknown motor
Mass
575 kg wet, ~530 kg dry
Launch date (UTC)
2025-08-04 (1 month ago)
Launch vehicle
FALCON 9
Launch site
Air Force Eastern Test Range (AFETR)
Object type
Payload
Rocket body
Debris
Shape & HBR
Unknown
Radar Cross Section
Large (>1 m²)

Expand to show TLE details & history
Last TLE update: 5 hours ago

TLE from 5 hours ago
0 STARLINK-34594
1 65088U 25167L   25243.56046164  .00300498  00000-0  19780-2 0  9997
2 65088  53.1581 193.1268 0001348  88.5185 271.5989 15.74256607  4326
Epoch: 2025-08-31T13:27Z
TLE epoch observation values (Epoch: 2025-08-31T13:27:03.885Z)
Latitude
-0.00005°
Longitude
11.38192°
Altitude
347.639 km
Speed
7.702 km/s
True Right ascension
12h 52m 30s
True Declination
0° 00' 00"
Sunlit
Object was in daylight at epoch
Visualization orbit readout
Latitude
Unknown
Longitude
Unknown
Altitude
Unknown
Speed
Unknown
Apparent Right ascension
Unknown
Apparent Declination
Unknown
Sunlit
N/A
Visualization observer readout
Local Sidereal Time
10:05:18
Azimuth
Unknown
Elevation
Unknown
Doppler factor
Unknown
Orbital elements
Apogee altitude
347.915 km
Perigee altitude
346.102 km
Semi-major axis
6,725.146 km
Eccentricity
0.00013
Inclination
53.1581°
RAAN
193.1268°
Arg. of periapsis
88.5185°
True anomaly
271.58346°
Mean anomaly
271.5989°
Eccentric anomaly
271.59118°
Mean motion
3.93542 °/min
Orbital period
91.48 mins
BSTAR
0.001978
Loading maneuver chart data...
Computing Atmospheric mass density...
Loading historical data...
Loading historical data...
Loading historical data...
Loading historical data...
Loading historical data...
Loading historical data...
Loading historical data...

Documentation

Showing up to 5 results
|